CZ-4 DEB, 35327

Orbit data source: Space-Track

CZ-4 DEB, 35327 is space debris in SSO originally from a launch on Thu, 14 Oct 1999 UTC launched from the Taiyaun Space Center, China (TSC). Debris objects in space refer to the collection of defunct objects orbiting the Earth. Examples of debris include non-operational satellites, rocket bodies, and fragments generated from explosions, collisions, or faulty payload assembly.

Loading next visibility...
Identifier
35327, 1999-057SF
Orbit
SSO
Country
Flag of CNCN / PRC
Related business
Manufacturer
Unknown
Mission
Spacecraft
Bus & Motor
Unknown
Mass
Unknown
Launch date (UTC)
1999-10-14 (26 years ago)
Launch vehicle
Unknown
Launch site
Taiyaun Space Center, China (TSC)
Object type
Payload
Rocket body
Debris
Shape & HBR
Unknown shape, 0.1 m
Radar Cross Section
Small (<0.1 m²)

Expand to show TLE details & history
Last TLE update: 1 week ago

TLE from 1 week ago
0 CZ-4 DEB
1 35327U 99057SF  25298.97046038  .00005244  00000-0  10295-2 0  9997
2 35327  98.4778  18.3809 0075922 120.8664 240.0033 14.61288563679105
Epoch: 2025-10-25T23:17Z
TLE epoch observation values (Epoch: 2025-10-25T23:17:27.776Z)
Latitude
0.00003°
Longitude
-5.57821°
Altitude
719.129 km
Speed
7.481 km/s
True Right ascension
01h 13m 31s
True Declination
0° 00' 00"
Sunlit
Object was in full shadow at epoch
Visualization orbit readout
Latitude
Unknown
Longitude
Unknown
Altitude
Unknown
Speed
Unknown
Apparent Right ascension
Unknown
Apparent Declination
Unknown
Sunlit
N/A
Visualization observer readout
Local Sidereal Time
14:27:45
Azimuth
Unknown
Elevation
Unknown
Doppler factor
Unknown
Orbital elements
Apogee altitude
739.742 km
Perigee altitude
632.475 km
Semi-major axis
7,064.246 km
Eccentricity
0.00759
Inclination
98.4778°
RAAN
18.3809°
Arg. of periapsis
120.8664°
True anomaly
239.25341°
Mean anomaly
240.0033°
Eccentric anomaly
239.628°
Mean motion
3.65548 °/min
Orbital period
98.48 mins
BSTAR
0.0010295
Loading maneuver chart data...
Computing Atmospheric mass density...
Loading historical data...
Loading historical data...
Loading historical data...
Loading historical data...
Loading historical data...
Loading historical data...
Loading historical data...

Documentation

Showing up to 5 results
|